This is the latest recevied weather packets stored in our database for station/object W5ITZ. If no packets are shown the sender has not sent any weather packets the latest 10 day(s).
| Time | Temp. | Humidity | Pressure | Rain* | Wind** | Luminosity | Snow |
|---|---|---|---|---|---|---|---|
| 1778095476 | 28.33° C | 82% | 1009.1 hPa | 0 mm | - | 666 W/m² | - |
| 1778095172 | 28.33° C | 83% | 1009.5 hPa | 0 mm | - | 334 W/m² | - |
| 1778094869 | 28.33° C | 82% | 1009.5 hPa | 0 mm | - | 574 W/m² | - |
| 1778094566 | 27.78° C | 83% | 1009.4 hPa | 0 mm | - | 698 W/m² | - |
| 1778094262 | 27.78° C | 82% | 1009.5 hPa | 0 mm | - | 381 W/m² | - |
| 1778093959 | 28.33° C | 82% | 1009.6 hPa | 0 mm | - | 435 W/m² | - |
| 1778093657 | 28.33° C | 82% | 1009.6 hPa | 0 mm | - | 645 W/m² | - |
| 1778093354 | 28.33° C | 82% | 1009.6 hPa | 0 mm | - | 735 W/m² | - |
| 1778093051 | 27.78° C | 83% | 1009.6 hPa | 0 mm | - | 760 W/m² | - |
| 1778092748 | 27.22° C | 86% | 1009.7 hPa | 0 mm | - | 390 W/m² | - |
| 1778092443 | 27.22° C | 86% | 1009.9 hPa | 0 mm | - | 257 W/m² | - |
| 1778092140 | 27.22° C | 86% | 1010 hPa | 0 mm | - | 293 W/m² | - |
| 1778091837 | 27.22° C | 85% | 1010.1 hPa | 0 mm | - | 237 W/m² | - |
| 1778091534 | 27.22° C | 87% | 1010.1 hPa | 0 mm | - | 260 W/m² | - |
| 1778091232 | 27.22° C | 87% | 1010.2 hPa | 0 mm | - | 237 W/m² | - |
| 1778090929 | 27.22° C | 87% | 1010 hPa | 0 mm | - | 223 W/m² | - |
| 1778090625 | 27.22° C | 86% | 1010.4 hPa | 0 mm | - | 126 W/m² | - |
| 1778090322 | 27.22° C | 86% | 1010.1 hPa | 0 mm | - | 166 W/m² | - |
| 1778090019 | 26.67° C | 86% | 1010.3 hPa | 0 mm | - | 218 W/m² | - |
| 1778089716 | 26.67° C | 87% | 1010.4 hPa | 0 mm | - | 144 W/m² | - |
| 1778089413 | 26.67° C | 87% | 1010.4 hPa | 0 mm | - | 140 W/m² | - |
| 1778089111 | 26.67° C | 87% | 1010.3 hPa | 0 mm | - | 115 W/m² | - |
| 1778088808 | 26.67° C | 87% | 1010.3 hPa | 0 mm | - | 44 W/m² | - |
| 1778088505 | 26.67° C | 87% | 1010.4 hPa | 0 mm | - | 97 W/m² | - |
| 1778088201 | 26.67° C | 86% | 1010.5 hPa | 0 mm | - | 163 W/m² | - |
* Rain latest hour (hover to see other rain measurements)
** Current wind speed in m/s (hover to see current wind gust speed)